Flag for United Kingdom Weather past 2 weeks in Middlesbrough, England, United Kingdom

Now
50 °F

Passing clouds.


Feels Like: 46 °F
Forecast: N/A
Wind: 12 mph from West

Location: Tees-Side

Current Time: Dec 18, 2014 at 10:49:23 PM

Latest Report: Dec 18, 2014 at 9:50 PM


Visibility: N/A

Pressure: 29.53 "Hg

Humidity: 76%

Dew point: 43 °F

Location of MiddlesbroughLocation

Historic Weather in Middlesbrough — Graph

°F

Middlesbrough temperature yesterday

Maximum temperature yesterday: 55 °F (at 2:50 PM)
Minimum temperature yesterday: 50 °F (at 4:20 PM)
Average temperature yesterday: 53 °F

Past Weeks' High & Low Weather Summary

 TemperatureHumidityPressure
High57 °F (Dec 18, 10:50 AM)100% (Dec 3, 9:50 PM)30.30 "Hg (Dec 3, 9:50 PM)
Low28 °F (Dec 6, 5:50 AM)61% (Dec 5, 12:20 PM)29.15 "Hg (Dec 12, 5:50 AM)
Average41 °F79%29.75 "Hg
* Reported Dec 3 9:20 PM — Dec 18 9:50 PM, Middlesbrough, Weather by CustomWeather, © 2014

Note: Actual official high and low records may vary slightly from our data, if they occured in-between our weather recording intervals... More about our weather records

Advertising

Middlesbrough weather history for previous 24 hours

 ConditionsComfort  
Time TempWeatherWind HumidityBarometerVisibility
9:50 PM
Dec 18
50 °FPassing clouds.12 mph76%29.53 "HgN/A
9:20 PM52 °FPassing clouds.15 mph67%29.50 "HgN/A
8:50 PM52 °FPassing clouds.13 mph72%29.50 "HgN/A
8:20 PM52 °FPassing clouds.20 mph72%29.50 "HgN/A
7:50 PM52 °FPassing clouds.15 mph77%29.50 "HgN/A
7:20 PM52 °FPassing clouds.18 mph72%29.47 "HgN/A
6:50 PM54 °FPassing clouds.16 mph72%29.50 "HgN/A
6:20 PM54 °FPassing clouds.14 mph77%29.47 "HgN/A
5:50 PM54 °FPassing clouds.17 mph77%29.47 "HgN/A
5:20 PM55 °FLight rain. Passing clouds.28 mph77%29.47 "HgN/A
4:50 PM55 °FPassing clouds.25 mph77%29.45 "HgN/A
4:20 PM55 °FPassing clouds.32 mph77%29.42 "HgN/A
3:20 PM57 °FPassing clouds.24 mph72%29.42 "HgN/A
2:50 PM57 °FScattered clouds.22 mph72%29.42 "HgN/A
2:20 PM57 °FScattered clouds.23 mph72%29.42 "HgN/A
1:50 PM57 °FPartly sunny.26 mph72%29.42 "HgN/A
1:20 PM57 °FScattered clouds.25 mph72%29.42 "HgN/A
12:50 PM57 °FPartly sunny.29 mph72%29.45 "HgN/A
12:20 PM57 °FPartly sunny.28 mph77%29.45 "HgN/A
11:50 AM57 °FScattered clouds.25 mph77%29.45 "HgN/A
11:20 AM57 °FBroken clouds.28 mph77%29.42 "HgN/A
10:50 AM57 °FPartly sunny.21 mph77%29.45 "HgN/A
10:20 AM55 °FPartly sunny.14 mph82%29.47 "HgN/A
9:50 AM55 °FPartly sunny.20 mph82%29.47 "HgN/A
9:20 AM54 °FPartly sunny.23 mph82%29.47 "HgN/A
8:50 AM54 °FPartly sunny.22 mph82%29.47 "HgN/A
8:20 AM54 °FPassing clouds.24 mph82%29.47 "HgN/A
7:50 AM54 °FPassing clouds.16 mph82%29.50 "HgN/A
7:20 AM54 °FPassing clouds.15 mph82%29.50 "HgN/A
6:50 AM54 °FPassing clouds.16 mph82%29.53 "HgN/A
6:20 AM52 °FPassing clouds.18 mph88%29.50 "HgN/A
5:50 AM52 °FPassing clouds.20 mph88%29.50 "HgN/A
Weather by CustomWeather, © 2014

See weather overviewHow to use our weather pages